FW8176 Weather Reports


time (UTC)temp
C
wind
direction
speed
KPH
gust
KPH
rain 1hr
cm
rain 24hr
cm
rain mn
cm
humidity
%
barometer
mb
20260503050823 16 202 20.9 25.7 0.00 0.00 0.00 41 1014.0
20260503050318 16 212 14.5 20.9 0.00 0.00 0.00 42 1014.0
20260503045828 16 180 14.5 22.5 0.00 0.00 0.00 41 1014.0
20260503045321 16 205 16.1 20.9 0.00 0.00 0.00 43 1013.9
20260503044832 16 204 14.5 20.9 0.00 0.00 0.00 42 1013.9
20260503044323 16 201 17.7 20.9 0.00 0.00 0.00 42 1014.0
20260503043814 16 190 16.1 25.7 0.00 0.00 0.00 42 1013.9
20260503043328 16 217 19.3 25.7 0.00 0.00 0.00 41 1013.8
20260503042819 16 212 17.7 24.1 0.00 0.00 0.00 42 1013.8
20260503042334 17 203 14.5 24.1 0.00 0.00 0.00 40 1013.8
20260503041825 17 211 12.9 19.3 0.00 0.00 0.00 41 1013.7
20260503040835 17 178 6.4 9.7 0.00 0.00 0.00 39 1013.6
20260503040315 17 156 4.8 9.7 0.00 0.00 0.00 38 1013.6
20260503035846 17 182 6.4 9.7 0.00 0.00 0.00 38 1013.5
20260503035315 17 169 4.8 8.0 0.00 0.00 0.00 39 1013.5
20260503034826 17 173 4.8 8.0 0.00 0.00 0.00 39 1013.5
20260503034317 17 121 0.0 0.0 0.00 0.00 0.00 38 1013.4
20260503033327 18 82 1.6 6.4 0.00 0.00 0.00 39 1013.3
20260503032819 18 86 3.2 6.4 0.00 0.00 0.00 38 1013.1
20260503032329 18 99 3.2 4.8 0.00 0.00 0.00 38 1012.9
20260503031838 18 78 1.6 6.4 0.00 0.00 0.00 37 1012.9
20260503031329 18 23 3.2 6.4 0.00 0.00 0.00 37 1012.8
20260503030820 18 55 1.6 4.8 0.00 0.00 0.00 37 1012.6
20260503030337 18 55 1.6 4.8 0.00 0.00 0.00 37 1012.6
20260503025828 18 78 1.6 4.8 0.00 0.00 0.00 36 1012.5
20260503025320 19 57 1.6 4.8 0.00 0.00 0.00 36 1012.5
20260503024331 19 57 0.0 6.4 0.00 0.00 0.00 35 1012.5
20260503023822 20 101 3.2 6.4 0.00 0.00 0.00 35 1012.5
20260503023314 20 34 0.0 3.2 0.00 0.00 0.00 34 1012.5
20260503022826 20 34 1.6 4.8 0.00 0.00 0.00 34 1012.6
20260503022339 20 34 1.6 4.8 0.00 0.00 0.00 34 1012.5
20260503021849 20 34 0.0 3.2 0.00 0.00 0.00 33 1012.4
20260503020820 20 34 1.6 4.8 0.00 0.00 0.00 34 1012.4
20260503020328 20 360 1.6 4.8 0.00 0.00 0.00 32 1012.4
20260503015821 20 360 1.6 3.2 0.00 0.00 0.00 33 1012.3
20260503015337 20 360 1.6 6.4 0.00 0.00 0.00 33 1012.3
20260503014829 20 355 1.6 6.4 0.00 0.00 0.00 33 1012.3
20260503014321 21 38 0.0 6.4 0.00 0.00 0.00 34 1012.4
20260503013833 21 38 3.2 6.4 0.00 0.00 0.00 33 1012.3
20260503013324 21 42 0.0 4.8 0.00 0.00 0.00 34 1012.3
20260503012816 21 42 1.6 4.8 0.00 0.00 0.00 33 1012.3
20260503012327 21 75 0.0 4.8 0.00 0.00 0.00 33 1012.3
20260503011819 21 75 3.2 6.4 0.00 0.00 0.00 35 1012.3
20260503011327 21 42 1.6 6.4 0.00 0.00 0.00 35 1012.4
20260503010820 21 49 3.2 9.7 0.00 0.00 0.00 32 1012.3
20260503010336 21 31 4.8 9.7 0.00 0.00 0.00 30 1012.4
20260503005828 21 17 4.8 9.7 0.00 0.00 0.00 34 1012.4
20260503005321 21 320 3.2 14.5 0.00 0.00 0.00 35 1012.4
20260503004854 21 19 3.2 9.7 0.00 0.00 0.00 33 1012.4
20260503004324 21 26 3.2 9.7 0.00 0.00 0.00 33 1012.4
20260503003836 21 15 4.8 8.0 0.00 0.00 0.00 30 1012.5
20260503003348 21 42 4.8 16.1 0.00 0.00 0.00 33 1012.3
20260503002818 22 27 8.0 16.1 0.00 0.00 0.00 30 1012.4
20260503002329 22 15 4.8 9.7 0.00 0.00 0.00 34 1012.4
20260503001821 22 47 4.8 9.7 0.00 0.00 0.00 32 1012.3
20260503001317 21 24 4.8 12.9 0.00 0.00 0.00 35 1012.4
20260503000829 22 19 8.0 12.9 0.00 0.00 0.00 31 1012.4
20260503000318 22 36 4.8 12.9 0.00 0.00 0.00 34 1012.4
20260502235345 21 360 4.8 14.5 0.00 0.00 0.00 35 1012.4
20260502234816 21 39 6.4 9.7 0.00 0.00 0.00 31 1012.4
20260502234327 21 24 3.2 9.7 0.00 0.00 0.00 38 1012.5
20260502233821 21 32 4.8 12.9 0.00 0.00 0.00 32 1012.4
20260502233332 21 38 6.4 17.7 0.00 0.00 0.00 32 1012.4
20260502232823 21 27 6.4 17.7 0.00 0.00 0.00 33 1012.6
20260502232316 22 40 6.4 17.7 0.00 0.00 0.00 31 1012.5
20260502231826 22 16 6.4 17.7 0.00 0.00 0.00 31 1012.7
20260502231338 22 18 9.7 14.5 0.00 0.00 0.00 29 1012.6
20260502230813 22 12 6.4 12.9 0.00 0.00 0.00 31 1012.7
20260502230324 22 42 4.8 12.9 0.00 0.00 0.00 33 1012.8
20260502225816 22 35 4.8 14.5 0.00 0.00 0.00 31 1012.8
20260502225328 22 34 6.4 14.5 0.00 0.00 0.00 29 1012.8
20260502224820 22 30 4.8 11.3 0.00 0.00 0.00 31 1012.9
20260502224313 22 32 3.2 12.9 0.00 0.00 0.00 27 1012.9
20260502223824 22 57 4.8 12.9 0.00 0.00 0.00 29 1012.9
20260502222814 23 19 6.4 12.9 0.00 0.00 0.00 28 1012.9
20260502222347 23 16 6.4 9.7 0.00 0.00 0.00 27 1013.0
20260502221845 23 355 3.2 12.9 0.00 0.00 0.00 33 1013.1
20260502221315 23 348 8.0 14.5 0.00 0.00 0.00 27 1013.1
20260502220849 23 17 6.4 14.5 0.00 0.00 0.00 31 1013.1
20260502220320 22 17 6.4 9.7 0.00 0.00 0.00 31 1013.2
20260502215852 22 27 6.4 9.7 0.00 0.00 0.00 30 1013.2
20260502215321 22 355 6.4 9.7 0.00 0.00 0.00 29 1013.1
20260502214855 22 339 6.4 9.7 0.00 0.00 0.00 28 1013.1
20260502214327 22 351 4.8 9.7 0.00 0.00 0.00 26 1013.1
20260502213819 22 360 6.4 12.9 0.00 0.00 0.00 29 1013.3
20260502213332 22 41 6.4 12.9 0.00 0.00 0.00 27 1013.3
20260502212823 22 350 6.4 12.9 0.00 0.00 0.00 26 1013.3
20260502212315 23 349 8.0 14.5 0.00 0.00 0.00 24 1013.3
20260502211825 23 355 8.0 14.5 0.00 0.00 0.00 26 1013.3
20260502211321 23 339 6.4 12.9 0.00 0.00 0.00 27 1013.4
20260502210853 23 342 8.0 12.9 0.00 0.00 0.00 29 1013.4
20260502210324 23 355 4.8 12.9 0.00 0.00 0.00 28 1013.4
20260502205817 23 349 4.8 8.0 0.00 0.00 0.00 27 1013.4
20260502205330 23 338 1.6 12.9 0.00 0.00 0.00 31 1013.5
20260502204821 23 53 4.8 9.7 0.00 0.00 0.00 31 1013.6
20260502204353 22 327 4.8 14.5 0.00 0.00 0.00 33 1013.7
20260502203824 22 355 6.4 14.5 0.00 0.00 0.00 31 1013.7
20260502203317 22 355 8.0 14.5 0.00 0.00 0.00 33 1013.7
20260502202848 22 355 8.0 14.5 0.00 0.00 0.00 36 1013.7
20260502202318 22 360 6.4 14.5 0.00 0.00 0.00 35 1013.8
20260502201828 22 355 8.0 12.9 0.00 0.00 0.00 34 1013.9
20260502201323 22 11 6.4 16.1 0.00 0.00 0.00 36 1013.8
20260502200814 22 344 8.0 14.5 0.00 0.00 0.00 35 1013.9
20260502200342 21 338 8.0 12.9 0.00 0.00 0.00 37 1014.0
20260502195814 21 342 6.4 12.9 0.00 0.00 0.00 34 1014.1
20260502195347 21 355 6.4 9.7 0.00 0.00 0.00 38 1014.2
20260502194818 21 326 4.8 9.7 0.00 0.00 0.00 40 1014.3
20260502194331 20 345 6.4 12.9 0.00 0.00 0.00 38 1014.3
20260502193823 20 348 6.4 9.7 0.00 0.00 0.00 39 1014.3
20260502193335 20 16 3.2 8.0 0.00 0.00 0.00 42 1014.4
20260502192816 20 310 4.8 9.7 0.00 0.00 0.00 38 1014.4
20260502192328 20 5 4.8 12.9 0.00 0.00 0.00 38 1014.4
20260502191821 20 320 4.8 12.9 0.00 0.00 0.00 40 1014.5
20260502191313 20 344 6.4 12.9 0.00 0.00 0.00 42 1014.5
20260502190325 19 306 4.8 9.7 0.00 0.00 0.00 43 1014.5
20260502185817 19 332 4.8 9.7 0.00 0.00 0.00 45 1014.5
20260502185327 18 334 6.4 9.7 0.00 0.00 0.00 43 1014.7
20260502184838 18 360 6.4 12.9 0.00 0.00 0.00 44 1014.7
20260502184348 18 32 6.4 12.9 0.00 0.00 0.00 45 1014.7
20260502183819 18 16 3.2 8.0 0.00 0.00 0.00 46 1014.8
20260502183332 18 355 3.2 9.7 0.00 0.00 0.00 50 1014.9
20260502182825 18 19 6.4 11.3 0.00 0.00 0.00 48 1015.0
20260502182315 17 31 3.2 12.9 0.00 0.00 0.00 47 1015.0
20260502181825 17 360 4.8 12.9 0.00 0.00 0.00 46 1015.0
20260502181318 17 351 4.8 12.9 0.00 0.00 0.00 47 1015.1
20260502180830 17 21 4.8 9.7 0.00 0.00 0.00 50 1015.1
20260502180319 16 15 4.8 9.7 0.00 0.00 0.00 49 1015.3
20260502170335 15 16 3.2 6.4 0.00 0.00 0.00 50 1015.6
20260502164327 14 355 3.2 6.4 0.00 0.00 0.00 52 1015.6
20260502163838 14 340 3.2 8.0 0.00 0.00 0.00 56 1015.6
20260502163329 14 340 3.2 8.0 0.00 0.00 0.00 58 1015.6
20260502162819 14 5 4.8 6.4 0.00 0.00 0.00 58 1015.7
20260502162330 14 9 3.2 4.8 0.00 0.00 0.00 56 1015.6
20260502161822 14 355 1.6 4.8 0.00 0.00 0.00 58 1015.7
20260502161313 13 355 1.6 4.8 0.00 0.00 0.00 58 1015.8
20260502160845 13 23 1.6 4.8 0.00 0.00 0.00 57 1015.7
20260502160330 13 30 3.2 4.8 0.00 0.00 0.00 55 1015.7
20260502152327 12 235 0.0 4.8 0.00 0.00 0.00 56 1015.9
20260502151821 12 235 3.2 4.8 0.00 0.00 0.00 50 1016.0
20260502151331 12 235 3.2 4.8 0.00 0.00 0.00 51 1015.9
20260502150827 12 235 0.0 0.0 0.00 0.00 0.00 52 1016.0
20260502150318 12 235 0.0 0.0 0.00 0.00 0.00 49 1015.9
20260502130315 10 254 3.2 4.8 0.00 0.00 0.00 48 1015.6
20260502123312 10 230 0.0 3.2 0.00 0.00 0.00 47 1015.6
20260502122822 10 230 1.6 3.2 0.00 0.00 0.00 48 1015.6
20260502122338 10 229 1.6 3.2 0.00 0.00 0.00 47 1015.7
20260502121829 10 230 0.0 4.8 0.00 0.00 0.00 47 1015.7
20260502121341 10 228 0.0 12.9 0.00 0.00 0.00 47 1015.7
20260502120831 10 238 3.2 14.5 0.00 0.00 0.00 47 1015.6
20260502120319 10 211 8.0 12.9 0.00 0.00 0.00 47 1015.7
20260502115851 10 259 6.4 11.3 0.00 0.00 0.00 47 1015.7
20260502115341 10 161 1.6 4.8 0.00 0.00 0.00 47 1015.8
20260502114833 10 69 0.0 0.0 0.00 0.00 0.00 47 1015.9
20260502114345 10 69 0.0 0.0 0.00 0.00 0.00 47 1015.8
20260502113815 10 69 0.0 0.0 0.00 0.00 0.00 47 1015.8
20260502113329 11 69 0.0 0.0 0.00 0.00 0.00 47 1015.8
20260502112319 11 157 0.0 4.8 0.00 0.00 0.00 45 1015.9
20260502111816 11 157 3.2 4.8 0.00 0.00 0.00 45 1016.0
20260502111329 11 157 3.2 4.8 0.00 0.00 0.00 45 1016.0
20260502110821 11 157 1.6 4.8 0.00 0.00 0.00 48 1016.0
20260502110332 11 157 3.2 4.8 0.00 0.00 0.00 48 1016.0
20260502105823 11 157 1.6 8.0 0.00 0.00 0.00 49 1016.0
20260502105315 11 157 0.0 11.3 0.00 0.00 0.00 48 1016.0
20260502104827 10 144 6.4 11.3 0.00 0.00 0.00 52 1016.0
20260502104320 11 128 8.0 11.3 0.00 0.00 0.00 52 1016.0
20260502103816 11 123 4.8 9.7 0.00 0.00 0.00 51 1015.9
20260502103327 11 119 4.8 11.3 0.00 0.00 0.00 49 1016.0
20260502102818 11 144 8.0 11.3 0.00 0.00 0.00 50 1016.1
20260502102330 11 131 3.2 12.9 0.00 0.00 0.00 46 1016.0
20260502101842 11 139 8.0 12.9 0.00 0.00 0.00 50 1016.1
20260502101332 11 131 4.8 6.4 0.00 0.00 0.00 48 1016.0
20260502100823 11 146 3.2 8.0 0.00 0.00 0.00 45 1016.1
20260502100352 11 143 4.8 9.7 0.00 0.00 0.00 45 1016.0
20260502090827 11 209 14.5 16.1 0.00 0.00 0.00 40 1016.0
20260502090320 11 182 3.2 6.4 0.00 0.00 0.00 42 1016.0
20260502070822 12 67 1.6 6.4 0.00 0.00 0.00 44 1015.9
20260502070314 12 63 3.2 9.7 0.00 0.00 0.00 43 1016.0
20260502065827 12 63 1.6 9.7 0.00 0.00 0.00 43 1016.0
20260502065319 12 140 1.6 11.3 0.00 0.00 0.00 43 1015.9
20260502064830 12 180 4.8 11.3 0.00 0.00 0.00 43 1016.0
20260502064322 12 186 4.8 16.1 0.00 0.00 0.00 43 1015.9
20260502063814 12 175 11.3 17.7 0.00 0.00 0.00 43 1015.8
20260502063326 12 188 12.9 19.3 0.00 0.00 0.00 44 1015.9
20260502062821 12 185 12.9 19.3 0.00 0.00 0.00 44 1015.9
20260502062333 12 209 14.5 24.1 0.00 0.00 0.00 44 1015.9
20260502061824 12 211 17.7 27.4 0.00 0.00 0.00 44 1015.8
20260502061317 12 220 17.7 27.4 0.00 0.00 0.00 45 1016.0
20260502060830 13 209 17.7 29.0 0.00 0.00 0.00 45 1015.8
20260502060314 13 232 17.7 29.0 0.00 0.00 0.00 45 1015.9
20260502055826 13 221 14.5 22.5 0.00 0.00 0.00 45 1015.9
20260502055318 13 200 14.5 27.4 0.00 0.00 0.00 46 1015.9
20260502054815 13 207 19.3 27.4 0.00 0.00 0.00 45 1016.0
20260502054347 13 209 16.1 20.9 0.00 0.00 0.00 45 1015.9
20260502053837 13 192 14.5 24.1 0.00 0.00 0.00 44 1016.0
20260502053328 13 204 17.7 24.1 0.00 0.00 0.00 44 1015.9
20260502052840 13 215 17.7 24.1 0.00 0.00 0.00 44 1016.0
20260502052330 13 201 14.5 25.7 0.00 0.00 0.00 44 1016.0
20260502051822 13 224 19.3 25.7 0.00 0.00 0.00 44 1015.8
20260502051334 13 211 16.1 24.1 0.00 0.00 0.00 44 1015.9